Dewpoint
13 13 14 14 13 13 13 13 12 12 12 12 11 11 11 12 12 12 12 12 11 11 10 10 9 9 11 12 12 11 10 10 10 9 9 9 9 8 8 8 7 6 6
12 13 13 13 13 13 12 11 11 11 11 11 11 11 11 11 11 11 11 11 12 12 11 11 9 9 11 11 11 12 12 10 10 10 10 10 9 9 9 8 8 8 7
10 11 11 11 11 11 11 11 10 10 11 11 10 8 8 8 8 9 9 9 10 11 10 11 10 8 8 10 10 8 12 12 10 10 10 10 10 9 10 10 9 8 8
8 8 9 9 10 10 10 10 10 9 9 8 9 8 9 8 7 7 8 4 2 4 7 6 8 8 8 9 10 10 9 11 11 11 10 10 10 10 10 10 10 9 8
4 5 6 7 7 8 8 8 9 9 8 6 7 7 8 8 7 7 3 -4 -1 3 8 7 7 8 8 8 9 8 10 7 11 9 10 10 10 11 10 10 10 10 9
-1 -1 -1 0 1 1 2 2 3 3 3 3 2 2 2 3 2 -3 -7 -7 -0 5 8 9 9 8 9 9 10 11 11 9 6 6 10 9 11 10 11 11 11 10 10
-1 -1 -2 -3 -4 -4 -4 -4 -3 -3 -3 -3 -3 -4 -3 -5 -6 -6 -6 -4 5 8 12 13 12 12 11 11 11 11 11 11 10 10 6 5 8 10 10 10 10 11 11
-2 -1 -0 0 -0 -0 -1 -1 -2 -4 -4 -4 -4 -4 -4 -3 1 3 5 8 10 10 11 11 11 11 11 11 11 11 11 10 10 8 6 7 6 9 10 10 10 10 10
-6 -6 -6 -5 -4 -3 -1 0 0 0 0 0 0 1 3 2 -1 2 7 7 8 8 8 9 10 9 10 10 11 11 11 11 10 8 7 9 8 9 10 9 10 10 10
-7 -6 -5 -5 -5 -4 -3 -3 -2 -0 0 1 1 2 2 2 2 -0 -2 1 3 3 4 4 5 6 7 8 9 10 10 11 11 10 9 8 7 11 10 9 9 9 8
-5 -5 -5 -4 -3 -3 -3 -2 -1 -1 -1 -0 -0 -0 1 1 1 2 2 2 -0 0 -0 -2 -2 -2 2 6 8 8 10 10 10 10 10 10 9 9 10 9 9 8 8
-3 -3 -2 -2 -2 -2 -2 -2 -2 -2 -2 -1 -1 -1 -1 -1 0 0 1 1 1 1 0 -2 -1 1 1 1 5 7 7 8 10 9 10 10 10 11 9 9 11 9 8
-3 -3 -3 -2 -2 -2 -2 -3 -3 -2 -2 -1 -1 -1 -1 -1 -1 -1 -1 -1 -0 -0 0 1 1 1 2 3 3 5 6 6 8 9 9 9 8 9 9 9 10 10 9
-3 -3 -3 -3 -3 -3 -3 -3 -3 -3 -3 -3 -2 -2 -2 -2 -2 -2 -3 -3 -3 -1 0 1 1 2 1 2 2 2 4 5 7 7 8 8 8 7 8 9 10 10 9
-3 -4 -5 -4 -3 -3 -3 -4 -4 -5 -4 -4 -4 -4 -4 -3 -4 -4 -4 -4 -4 -3 -1 0 1 1 1 1 2 2 2 4 5 6 7 7 7 8 10 10 10 9 9
-5 -6 -8 -8 -6 -4 -4 -4 -5 -5 -5 -5 -5 -5 -5 -5 -5 -6 -5 -4 -4 -4 -4 -2 -2 -1 -0 1 1 2 2 3 4 5 7 8 9 8 8 9 9 10 10
-10 -10 -12 -14 -9 -9 -7 -7 -7 -7 -7 -7 -7 -5 -5 -4 -5 -6 -6 -5 -5 -5 -5 -4 -4 -3 -2 -1 -0 1 2 3 3 5 6 7 8 9 8 7 5 6 4
-15 -18 -20 -20 -13 -12 -12 -16 -19 -22 -20 -17 -21 -12 -9 -7 -6 -6 -6 -6 -6 -7 -6 -6 -5 -5 -6 -4 -3 -2 0 2 3 3 4 6 7 7 8 8 4 0 4
-19 -20 -25 -23 -18 -18 -17 -18 -23 -30 -28 -29 -28 -26 -24 -16 -13 -10 -9 -9 -7 -7 -7 -7 -8 -11 -10 -8 -7 -6 -4 -1 1 -2 -0 2 4 5 5 7 7 8 9
-20 -23 -29 -27 -22 -21 -20 -21 -26 -32 -33 -31 -29 -29 -30 -29 -25 -18 -14 -15 -15 -17 -15 -15 -17 -19 -20 -19 -17 -16 -11 -4 -2 -5 -4 -4 -1 1 3 3 5 7 8
-22 -27 -32 -25 -22 -24 -24 -22 -24 -29 -32 -28 -25 -26 -30 -28 -23 -24 -22 -21 -26 -26 -27 -25 -25 -26 -31 -30 -28 -24 -20 -14 -10 -12 -9 -8 -7 -5 -1 0 1 3 6
-25 -30 -32 -27 -24 -24 -26 -24 -25 -29 -29 -28 -26 -24 -29 -30 -28 -27 -26 -25 -27 -28 -29 -26 -24 -24 -25 -28 -29 -28 -26 -22 -19 -21 -21 -20 -17 -13 -5 -3 -4 -2 -1
-30 -32 -32 -31 -25 -23 -26 -27 -29 -28 -25 -25 -25 -23 -27 -32 -31 -29 -28 -29 -31 -30 -28 -24 -25 -23 -25 -28 -29 -33 -32 -22 -14 -17 -26 -32 -32 -28 -10 -4 -14 -15 -8
-30 -32 -33 -29 -28 -27 -26 -26 -27 -26 -23 -21 -20 -19 -22 -30 -33 -31 -32 -34 -34 -34 -32 -30 -29 -28 -30 -32 -33 -32 -34 -31 -23 -22 -33 -32 -38 -38 -19 -6 -15 -30 -27
-25 -29 -30 -26 -24 -27 -25 -23 -22 -24 -23 -21 -16 -14 -17 -23 -31 -32 -33 -34 -35 -35 -34 -32 -30 -32 -34 -36 -37 -38 -40 -40 -37 -27 -35 -29 -32 -40 -37 -18 -32 -36 -35
-17 -22 -26 -24 -22 -18 -17 -19 -21 -23 -24 -23 -21 -19 -14 -15 -17 -34 -35 -35 -35 -35 -36 -35 -35 -35 -36 -36 -35 -36 -35 -35 -36 -31 -32 -32 -36 -37 -39 -36 -41 -41 -39
Wind_Speed
14 15 18 18 17 16 16 16 18 18 19 20 21 22 22 24 26 27 28 30 33 30 28 27 26 28 29 31 32 35 35 34 31 32 32 31 30 29 26 26 25 24 23
19 17 13 17 16 17 19 20 20 22 23 22 22 22 23 23 22 24 27 30 31 32 34 35 34 30 33 34 36 41 36 37 35 33 34 33 32 31 30 29 29 27 25
19 17 17 20 21 20 21 26 25 25 27 26 26 26 26 25 25 24 24 25 26 25 29 32 35 38 41 41 43 49 28 41 39 36 35 34 34 33 33 32 31 31 29
10 13 17 22 25 23 22 25 26 26 28 32 32 28 27 26 25 24 22 21 22 24 25 29 32 42 45 45 47 51 50 37 38 36 36 36 36 36 35 35 34 33 32
9 11 13 16 18 20 21 21 22 24 26 28 24 23 24 24 23 22 23 22 22 21 22 22 23 28 30 33 33 28 33 28 29 34 38 37 39 39 37 37 37 36 36
8 9 11 13 15 17 18 19 21 21 23 25 23 23 23 22 20 21 23 23 21 19 20 20 20 24 26 32 19 12 12 25 38 44 37 40 40 40 39 39 38 38 38
11 11 12 13 14 15 16 17 18 20 20 21 22 19 19 19 17 19 21 22 19 18 16 11 10 14 21 26 32 34 36 32 35 44 45 42 37 40 40 41 40 39 41
13 14 15 17 18 18 18 18 17 18 18 16 17 17 9 8 11 13 16 17 17 17 18 15 12 11 13 16 21 21 31 28 32 47 42 41 42 43 42 41 42 41 41
14 15 16 16 17 18 20 20 19 19 19 17 11 6 6 5 13 9 15 16 16 14 12 14 15 12 17 18 16 19 17 24 33 49 48 36 42 44 43 42 41 40 42
14 15 16 16 17 17 16 16 16 15 16 16 11 6 7 9 6 12 10 12 19 20 17 17 16 16 14 15 15 13 13 22 23 40 54 43 42 40 41 44 42 42 44
12 13 14 15 15 15 15 15 14 13 12 11 11 13 14 11 12 18 22 20 20 19 22 20 16 16 18 17 18 18 16 18 24 25 27 39 43 44 46 45 48 48 46
13 14 15 15 14 14 14 14 13 13 11 10 10 10 12 9 12 14 19 24 25 22 22 20 16 12 15 17 21 24 24 22 21 19 22 24 31 40 49 49 43 50 51
13 14 15 15 16 15 15 14 12 12 13 11 11 11 11 13 16 18 22 23 25 28 20 15 9 15 15 16 22 24 22 27 27 24 23 22 22 29 44 45 50 45 53
12 13 13 12 12 13 12 13 12 11 11 11 11 10 9 9 11 15 17 17 21 21 19 9 11 15 19 20 23 24 21 20 23 28 31 27 25 26 30 40 46 44 45
10 11 11 10 10 10 11 12 11 10 10 11 9 8 8 8 8 10 12 12 8 7 10 7 11 16 20 20 20 18 18 19 20 28 25 30 27 23 19 26 34 44 50
10 11 11 10 9 9 10 9 10 10 10 11 10 9 8 8 7 9 8 6 6 9 9 10 15 20 19 17 16 14 12 12 16 18 21 19 23 26 24 24 24 29 44
9 10 10 9 8 10 10 11 10 10 10 10 9 8 9 10 9 9 8 4 2 4 7 8 12 15 13 12 8 10 9 8 10 14 20 23 20 20 28 34 39 32 35
9 10 9 7 7 9 9 10 10 9 9 9 10 8 8 9 7 8 10 7 4 7 6 7 7 10 10 10 10 6 4 5 5 8 12 16 19 22 16 27 31 40 38
8 8 7 5 6 8 8 9 9 9 9 10 10 12 11 9 9 9 10 10 9 7 7 8 9 13 14 13 11 11 9 1 3 10 6 7 13 15 15 13 14 23 23
7 6 4 4 5 7 7 7 8 8 8 9 10 12 12 12 11 10 11 13 13 14 12 13 14 16 18 20 17 19 16 6 6 14 8 13 9 8 11 12 14 22 16
5 3 3 3 4 5 6 6 7 8 8 9 10 12 14 13 13 12 12 14 16 15 16 17 18 21 24 27 29 27 23 16 8 14 14 12 14 10 6 8 9 12 21
1 2 2 2 3 5 8 6 6 7 8 8 9 11 11 11 12 13 13 13 15 16 17 18 19 23 25 26 26 27 28 27 21 17 21 14 15 15 8 8 14 13 14
2 2 3 4 3 4 7 8 8 7 9 11 12 13 13 13 12 13 14 15 15 16 16 17 20 22 23 26 25 24 24 21 18 21 23 18 20 22 7 3 17 18 16
3 3 4 5 4 4 7 8 8 8 9 12 14 15 15 13 14 13 14 15 16 16 18 19 19 18 20 21 23 24 23 20 14 15 29 24 28 25 8 1 15 23 22
3 4 4 5 6 5 6 7 7 6 7 9 14 18 17 16 16 15 13 15 16 19 19 18 18 18 20 21 22 21 24 26 26 18 30 29 36 33 11 4 25 27 23
4 5 4 4 6 8 7 7 6 6 6 9 11 13 18 17 18 16 16 17 19 20 18 16 17 17 21 24 25 27 27 28 28 15 33 32 35 37 19 9 33 31 30
Wind_Direction
260 263 265 262 265 269 272 281 283 282 282 281 279 278 275 275 277 278 277 270 267 266 261 255 250 258 248 247 255 257 249 245 241 238 234 231 227 225 223 224 224 221 220
264 263 268 268 267 271 276 279 283 286 287 288 288 285 282 283 282 281 280 279 275 268 259 250 246 247 255 248 249 254 256 247 243 239 238 235 232 229 226 226 225 225 222
264 273 272 276 279 278 282 286 285 288 288 291 294 291 287 285 284 282 281 279 276 271 263 258 255 249 252 250 249 243 253 251 244 241 240 238 235 233 230 229 227 229 226
291 283 280 276 277 281 283 282 282 281 287 291 290 293 289 284 281 277 273 275 276 271 262 256 250 250 255 251 258 253 258 277 243 244 243 242 238 236 234 232 230 229 231
301 292 286 281 280 283 284 286 285 287 287 284 293 292 293 286 279 269 268 268 268 264 258 244 254 243 249 238 260 254 236 248 237 236 240 242 242 237 236 235 235 233 231
319 310 302 295 290 288 288 289 292 294 293 289 287 291 294 287 274 263 258 260 262 262 257 250 253 249 251 246 246 227 263 245 233 227 231 237 243 242 240 238 237 236 235
315 313 310 305 301 299 297 296 294 293 294 297 303 291 284 281 267 250 243 248 253 249 256 260 248 256 255 250 253 265 263 260 254 227 225 228 239 245 242 241 241 239 237
321 313 308 303 300 299 296 295 300 304 308 320 320 320 311 273 238 234 229 231 234 239 237 234 222 223 241 252 253 263 260 258 242 217 225 234 240 244 243 241 241 242 241
323 322 320 316 311 306 300 297 295 295 297 300 323 324 334 312 309 235 223 226 227 229 237 238 232 233 236 243 249 250 239 230 224 229 226 279 248 242 244 241 244 245 245
326 323 321 318 313 313 315 315 312 305 300 304 296 243 263 275 308 301 243 248 248 250 257 259 261 260 252 249 254 251 234 230 236 235 247 255 245 243 243 248 248 244 247
341 334 327 324 324 321 322 321 319 314 313 311 306 301 291 275 267 268 285 287 268 264 266 272 284 275 259 247 243 245 248 247 244 246 250 247 241 244 244 243 245 244 245
359 357 358 356 349 345 341 334 332 326 320 311 309 298 291 298 270 281 286 293 302 301 278 295 283 277 268 255 246 242 247 251 248 250 256 262 260 248 242 245 242 237 239
8 10 10 10 7 7 1 358 350 337 327 331 320 302 283 270 273 278 280 289 291 295 313 314 307 277 271 269 260 247 243 248 252 256 257 256 263 263 245 246 245 247 238
12 12 10 14 18 17 9 7 350 342 336 338 326 309 295 286 285 285 287 293 303 295 309 318 309 275 273 283 282 278 262 260 255 257 262 267 270 278 256 246 239 240 235
6 3 359 2 4 8 9 5 359 339 352 351 345 341 333 321 316 308 291 287 287 299 301 291 292 275 291 293 294 290 276 258 256 252 261 266 271 269 266 250 245 238 233
354 351 347 346 349 344 357 0 355 346 3 9 13 8 4 353 338 337 326 304 280 270 273 294 307 293 306 304 305 304 291 266 257 253 254 263 266 259 254 248 253 258 246
342 343 348 343 328 342 355 354 347 338 348 357 4 3 12 13 354 354 354 355 352 332 299 310 296 315 319 319 305 287 285 264 269 259 253 254 259 257 259 252 264 279 295
345 345 342 333 330 342 351 354 357 354 355 358 9 9 16 22 5 7 16 30 29 26 10 318 326 359 6 9 3 357 303 266 263 283 267 261 259 268 249 259 258 271 271
336 340 340 335 339 344 351 357 7 12 11 12 15 23 28 28 23 20 20 24 29 29 23 7 14 17 20 22 40 38 23 108 136 20 5 301 273 270 272 246 240 235 234
330 341 342 347 343 352 356 15 23 25 27 29 29 29 32 31 30 25 23 23 24 28 22 24 23 23 24 25 31 32 44 64 105 44 46 38 5 328 295 301 268 266 247
324 354 5 12 23 7 27 29 25 24 26 35 40 37 33 35 36 32 29 24 26 33 31 29 27 24 23 25 26 22 22 28 33 33 31 30 20 10 334 328 312 298 275
330 31 18 17 23 18 48 41 39 36 40 42 44 42 41 39 33 29 29 24 21 33 34 29 28 26 20 21 23 20 16 16 15 16 19 19 17 7 358 357 13 351 324
112 101 54 35 32 33 50 48 44 44 46 47 50 47 47 45 43 38 32 31 32 35 39 34 33 28 17 18 15 19 21 20 14 359 1 11 14 14 5 35 19 8 352
147 102 67 59 43 55 66 57 50 47 49 50 48 41 44 55 55 48 43 40 42 41 43 38 35 32 24 21 19 17 17 25 10 3 4 4 3 13 5 343 5 354 349
155 99 77 71 58 73 90 73 55 52 59 64 60 44 42 50 64 60 60 59 54 49 45 43 42 39 32 28 24 17 21 16 17 11 8 7 0 359 14 29 359 349 346
147 107 110 94 73 70 88 84 64 50 54 60 65 70 59 47 49 56 51 53 51 50 50 50 47 40 35 32 31 29 26 26 21 9 4 5 1 2 351 344 345 347 348
Height
1514 1514 1515 1514 1514 1514 1514 1514 1514 1513 1513 1513 1512 1512 1512 1512 1511 1512 1512 1512 1513 1515 1516 1517 1518 1522 1524 1526 1529 1531 1533 1535 1536 1537 1538 1539 1541 1543 1546 1547 1549 1550 1553
1513 1512 1512 1512 1511 1511 1511 1510 1510 1510 1510 1509 1508 1508 1507 1506 1506 1506 1505 1505 1505 1507 1508 1507 1510 1511 1517 1518 1521 1519 1527 1529 1531 1532 1532 1534 1537 1538 1541 1543 1545 1547 1549
1511 1510 1509 1509 1508 1507 1507 1506 1506 1504 1504 1504 1504 1503 1502 1501 1500 1500 1499 1498 1497 1498 1498 1501 1502 1504 1508 1512 1514 1509 1506 1523 1524 1527 1528 1528 1531 1533 1536 1538 1540 1543 1545
1508 1507 1506 1505 1504 1503 1502 1501 1501 1500 1498 1496 1496 1498 1497 1496 1496 1495 1493 1492 1492 1492 1492 1492 1494 1497 1497 1501 1505 1506 1509 1493 1518 1521 1523 1524 1524 1527 1530 1532 1534 1538 1541
1506 1505 1504 1502 1500 1499 1497 1496 1496 1494 1491 1490 1489 1489 1490 1490 1490 1489 1488 1487 1486 1485 1485 1486 1488 1490 1491 1495 1497 1497 1497 1495 1504 1507 1511 1514 1517 1519 1522 1525 1528 1531 1534
1504 1503 1501 1500 1498 1496 1494 1492 1491 1489 1486 1484 1483 1483 1483 1483 1483 1483 1482 1482 1481 1481 1480 1481 1483 1482 1487 1491 1489 1492 1494 1494 1497 1498 1501 1501 1509 1512 1514 1517 1520 1523 1527
1503 1501 1500 1498 1496 1493 1491 1488 1486 1484 1483 1480 1478 1478 1478 1476 1477 1477 1476 1476 1477 1476 1476 1476 1479 1481 1481 1485 1485 1485 1486 1489 1489 1493 1492 1496 1499 1503 1506 1509 1512 1515 1519
1500 1499 1497 1496 1493 1491 1489 1486 1483 1481 1480 1479 1476 1474 1473 1473 1473 1472 1471 1472 1472 1471 1471 1471 1471 1474 1476 1476 1477 1477 1477 1478 1482 1483 1488 1489 1491 1495 1497 1501 1504 1506 1511
1499 1497 1496 1494 1491 1489 1487 1484 1480 1477 1476 1477 1477 1477 1476 1474 1470 1469 1469 1469 1469 1468 1467 1466 1467 1470 1472 1472 1472 1473 1473 1473 1475 1479 1477 1478 1484 1486 1489 1492 1495 1498 1503
1497 1496 1493 1491 1489 1487 1485 1481 1479 1475 1472 1472 1474 1476 1476 1476 1475 1469 1466 1467 1465 1465 1465 1464 1465 1465 1466 1466 1466 1465 1464 1464 1468 1470 1471 1472 1474 1476 1480 1483 1486 1489 1494
1496 1494 1492 1490 1487 1485 1482 1480 1477 1476 1471 1470 1471 1472 1473 1472 1473 1472 1465 1463 1462 1461 1460 1461 1463 1461 1459 1460 1461 1461 1460 1460 1460 1459 1461 1462 1463 1466 1468 1472 1477 1479 1483
1496 1494 1492 1489 1486 1483 1479 1479 1477 1477 1472 1468 1468 1470 1471 1471 1469 1468 1464 1461 1460 1457 1456 1459 1457 1455 1453 1453 1451 1452 1452 1452 1452 1452 1453 1453 1455 1454 1456 1461 1464 1468 1474
1494 1493 1492 1489 1486 1482 1480 1478 1477 1477 1477 1466 1467 1468 1468 1467 1465 1464 1462 1459 1457 1453 1453 1455 1455 1451 1448 1446 1443 1444 1446 1446 1445 1446 1447 1445 1446 1447 1447 1451 1455 1459 1464
1496 1496 1493 1490 1487 1484 1480 1477 1478 1476 1475 1468 1466 1466 1464 1462 1461 1460 1458 1457 1453 1452 1451 1452 1452 1448 1445 1441 1440 1439 1441 1441 1440 1439 1439 1439 1438 1438 1438 1440 1444 1449 1453
1495 1496 1494 1490 1488 1484 1479 1477 1476 1479 1474 1469 1467 1465 1462 1460 1458 1457 1456 1454 1453 1452 1448 1448 1446 1442 1440 1438 1437 1435 1434 1434 1433 1432 1432 1431 1431 1431 1430 1432 1434 1439 1443
1496 1497 1496 1492 1488 1487 1479 1478 1477 1477 1474 1469 1468 1465 1462 1458 1457 1456 1454 1452 1450 1450 1448 1444 1441 1438 1434 1432 1432 1430 1430 1429 1425 1426 1427 1425 1425 1424 1424 1425 1428 1431 1435
1496 1496 1492 1492 1490 1484 1481 1478 1477 1476 1473 1470 1467 1466 1461 1458 1458 1457 1454 1451 1448 1447 1446 1444 1441 1437 1434 1430 1428 1426 1425 1424 1422 1421 1421 1420 1419 1419 1419 1420 1418 1425 1425
1494 1493 1491 1490 1487 1483 1481 1479 1478 1476 1472 1470 1468 1466 1461 1459 1459 1458 1455 1451 1448 1447 1445 1443 1440 1438 1436 1430 1426 1424 1421 1420 1418 1416 1415 1415 1414 1414 1411 1410 1409 1414 1416
1492 1492 1491 1489 1486 1483 1481 1480 1478 1475 1473 1470 1468 1466 1462 1460 1459 1458 1455 1452 1449 1447 1444 1443 1440 1437 1432 1429 1427 1424 1419 1417 1416 1414 1414 1412 1409 1409 1409 1406 1404 1405 1405
1490 1490 1490 1487 1485 1483 1482 1480 1479 1476 1474 1471 1469 1466 1463 1461 1460 1458 1455 1453 1449 1445 1444 1441 1438 1436 1433 1429 1425 1420 1418 1415 1415 1416 1413 1410 1407 1405 1404 1401 1400 1402 1396
1490 1489 1488 1487 1485 1483 1482 1481 1479 1477 1474 1472 1470 1467 1464 1462 1461 1458 1456 1453 1449 1446 1444 1442 1440 1435 1430 1424 1419 1419 1417 1414 1412 1413 1410 1409 1406 1404 1401 1398 1398 1394 1394
1490 1488 1487 1486 1485 1484 1483 1482 1480 1478 1476 1473 1471 1468 1467 1464 1462 1459 1456 1454 1450 1447 1446 1445 1441 1436 1432 1429 1425 1421 1417 1411 1410 1411 1408 1407 1403 1401 1399 1398 1397 1394 1394
1489 1488 1487 1486 1486 1485 1484 1482 1481 1479 1477 1474 1472 1470 1468 1465 1464 1461 1458 1455 1452 1450 1449 1447 1442 1438 1435 1429 1427 1423 1420 1416 1413 1411 1410 1406 1404 1400 1398 1399 1397 1394 1393
1490 1488 1487 1487 1487 1485 1484 1484 1482 1480 1478 1476 1473 1471 1469 1468 1466 1464 1460 1458 1455 1454 1450 1446 1443 1441 1437 1433 1428 1424 1422 1419 1417 1413 1407 1404 1402 1401 1398 1397 1396 1391 1387
1491 1488 1487 1488 1487 1486 1486 1485 1484 1483 1481 1478 1476 1474 1472 1469 1468 1466 1465 1462 1459 1454 1450 1448 1446 1443 1440 1436 1432 1429 1422 1418 1414 1412 1411 1406 1402 1397 1394 1393 1394 1392 1392
1491 1488 1489 1489 1488 1487 1487 1487 1486 1484 1482 1480 1478 1476 1476 1473 1470 1468 1466 1464 1459 1456 1455 1453 1450 1447 1441 1437 1434 1428 1425 1421 1418 1415 1412 1409 1403 1397 1393 1392 1393 1387 1383